TOM46V EGCC-LEPA

Flight info

Callsign TOM46V
Flight time N/A
Altitude 39000
Route KUXEM P17 BEPHE DCT OSSEP DCT ELNIF DCT ZESPE DCT KLAKI DCT MANIG DCT KORER UM616 TUPAR DCT CNA DCT SECHE DCT AGN DCT TOU DCT LOMRA DCT ROCAN DCT IBRAP DCT LUKEV N13 LORES
Aircraft B789/H-SADE2FGHIJ1J2J4J5M1P2RWXYZ/LB1D1G1

Departure

Time 2026-05-07 16:42
Airport Manchester Airport (EGCC)

Arrival

Time N/A
Airport Palma de Mallorca Airport (LEPA)
Time Latitude Longitude Altitude Speed Heading
2026-05-07 16:12 53.36416 -2.28254 260 ft 0 kts 45°
2026-05-07 16:29 53.36414 -2.28258 260 ft 3 kts 45°
2026-05-07 16:29 53.36395 -2.28289 260 ft 4 kts 45°
2026-05-07 16:29 53.36378 -2.28323 260 ft 4 kts 61°
2026-05-07 16:29 53.36372 -2.28359 260 ft 4 kts 122°
2026-05-07 16:30 53.36370 -2.28359 260 ft 4 kts 135°
2026-05-07 16:30 53.36351 -2.28327 260 ft 4 kts 135°
2026-05-07 16:30 53.36332 -2.28295 260 ft 4 kts 135°
2026-05-07 16:30 53.36313 -2.28263 260 ft 4 kts 135°
2026-05-07 16:31 53.36312 -2.28260 260 ft 1 kts 135°
2026-05-07 16:35 53.36307 -2.28252 260 ft 3 kts 134°
2026-05-07 16:36 53.36280 -2.28184 260 ft 10 kts 125°
2026-05-07 16:36 53.36230 -2.28092 260 ft 11 kts 134°
2026-05-07 16:36 53.36171 -2.27996 260 ft 12 kts 139°
2026-05-07 16:36 53.36102 -2.27903 260 ft 13 kts 142°
2026-05-07 16:37 53.36027 -2.27805 260 ft 14 kts 142°
2026-05-07 16:37 53.35940 -2.27731 260 ft 14 kts 173°
2026-05-07 16:37 53.35846 -2.27732 259 ft 11 kts 176°
2026-05-07 16:37 53.35773 -2.27672 256 ft 13 kts 150°
2026-05-07 16:38 53.35690 -2.27607 252 ft 13 kts 151°
2026-05-07 16:38 53.35621 -2.27524 251 ft 9 kts 141°
2026-05-07 16:38 53.35588 -2.27480 250 ft 3 kts 141°
2026-05-07 16:38 53.35584 -2.27475 250 ft 0 kts 141°
2026-05-07 16:39 53.35566 -2.27451 251 ft 8 kts 141°
2026-05-07 16:39 53.35499 -2.27360 254 ft 17 kts 141°
2026-05-07 16:40 53.35396 -2.27222 251 ft 17 kts 145°
2026-05-07 16:40 53.35290 -2.27200 246 ft 18 kts 192°
2026-05-07 16:40 53.35145 -2.27249 239 ft 23 kts 191°
2026-05-07 16:40 53.35041 -2.27293 233 ft 15 kts 201°
2026-05-07 16:41 53.34963 -2.27418 231 ft 17 kts 232°
2026-05-07 16:41 53.34828 -2.27697 228 ft 53 kts 231°
2026-05-07 16:41 53.34469 -2.28434 231 ft 110 kts 231°
2026-05-07 16:41 53.33876 -2.29661 256 ft 158 kts 230°
2026-05-07 16:42 53.33219 -2.31061 967 ft 149 kts 227°
2026-05-07 16:42 53.32530 -2.32451 1389 ft 164 kts 226°
2026-05-07 16:42 53.31873 -2.34056 1788 ft 177 kts 244°
2026-05-07 16:42 53.31913 -2.36262 1909 ft 207 kts 280°
2026-05-07 16:43 53.32308 -2.38667 2191 ft 224 kts 281°
2026-05-07 16:43 53.32682 -2.41302 2510 ft 239 kts 277°
2026-05-07 16:43 53.32505 -2.44092 2748 ft 249 kts 246°
2026-05-07 16:43 53.31898 -2.46811 3415 ft 251 kts 250°
2026-05-07 16:44 53.31423 -2.49631 4101 ft 253 kts 251°
2026-05-07 16:44 53.30937 -2.52469 4808 ft 255 kts 250°
2026-05-07 16:44 53.30411 -2.55309 5506 ft 256 kts 250°
2026-05-07 16:44 53.29877 -2.58157 6203 ft 258 kts 250°
2026-05-07 16:45 53.29175 -2.61007 6532 ft 272 kts 242°
2026-05-07 16:45 53.28284 -2.63887 6858 ft 285 kts 237°
2026-05-07 16:45 53.26839 -2.66257 7060 ft 300 kts 215°
2026-05-07 16:45 53.25097 -2.68264 7587 ft 306 kts 213°
2026-05-07 16:46 53.23317 -2.70256 8243 ft 309 kts 213°
2026-05-07 16:46 53.21537 -2.72300 8902 ft 312 kts 214°
2026-05-07 16:46 53.19749 -2.74388 9553 ft 315 kts 214°
2026-05-07 16:46 53.17940 -2.76484 10159 ft 318 kts 214°
2026-05-07 16:47 53.16109 -2.78586 10745 ft 322 kts 214°
2026-05-07 16:47 53.14257 -2.80713 11320 ft 325 kts 214°
2026-05-07 16:47 53.12384 -2.82868 11905 ft 329 kts 214°
2026-05-07 16:47 53.10494 -2.85042 12509 ft 332 kts 214°
2026-05-07 16:48 53.08486 -2.86969 12983 ft 337 kts 200°
2026-05-07 16:48 53.06177 -2.87708 13583 ft 341 kts 184°
2026-05-07 16:48 53.03806 -2.87258 14138 ft 345 kts 172°
2026-05-07 16:48 53.01430 -2.86583 14670 ft 348 kts 172°
2026-05-07 16:49 52.99030 -2.85927 15177 ft 351 kts 172°
2026-05-07 16:49 52.96605 -2.85282 15688 ft 355 kts 172°
2026-05-07 16:49 52.94152 -2.84622 16149 ft 359 kts 172°
2026-05-07 16:49 52.91675 -2.83947 16642 ft 363 kts 172°
2026-05-07 16:50 52.89169 -2.83267 17140 ft 366 kts 172°
2026-05-07 16:50 52.86643 -2.82587 17637 ft 369 kts 172°
2026-05-07 16:50 52.84094 -2.81901 18113 ft 373 kts 172°
2026-05-07 16:50 52.81524 -2.81210 18562 ft 376 kts 172°
2026-05-07 16:51 52.78936 -2.80513 18985 ft 378 kts 172°
2026-05-07 16:51 52.76325 -2.79811 19396 ft 381 kts 172°
2026-05-07 16:51 52.73702 -2.79108 19808 ft 383 kts 172°
2026-05-07 16:51 52.71093 -2.78409 20184 ft 386 kts 173°
2026-05-07 16:52 52.68432 -2.77697 20567 ft 389 kts 173°
2026-05-07 16:52 52.65751 -2.76981 20970 ft 391 kts 173°
2026-05-07 16:52 52.63056 -2.76262 21359 ft 394 kts 173°
2026-05-07 16:52 52.60334 -2.75816 21635 ft 394 kts 183°
2026-05-07 16:53 52.57596 -2.76092 22014 ft 395 kts 185°
2026-05-07 16:53 52.54846 -2.76358 22398 ft 397 kts 185°
2026-05-07 16:53 52.52075 -2.76585 22775 ft 399 kts 185°
2026-05-07 16:53 52.49292 -2.76809 23132 ft 402 kts 185°
2026-05-07 16:54 52.46494 -2.77055 23487 ft 404 kts 185°
2026-05-07 16:54 52.43682 -2.77308 23799 ft 406 kts 185°
2026-05-07 16:54 52.40858 -2.77552 24091 ft 407 kts 185°
2026-05-07 16:54 52.38019 -2.77792 24383 ft 409 kts 185°
2026-05-07 16:55 52.35172 -2.78036 24666 ft 411 kts 185°
2026-05-07 16:55 52.32312 -2.78285 24963 ft 412 kts 185°
2026-05-07 16:55 52.29442 -2.78533 25248 ft 414 kts 185°
2026-05-07 16:55 52.26557 -2.78779 25524 ft 416 kts 185°
2026-05-07 16:56 52.23666 -2.79026 25794 ft 417 kts 185°
2026-05-07 16:56 52.20760 -2.79276 26064 ft 419 kts 185°
2026-05-07 16:56 52.14912 -2.79776 26610 ft 422 kts 185°
2026-05-07 16:57 52.11975 -2.80026 26876 ft 424 kts 185°
2026-05-07 16:57 52.09024 -2.80278 27139 ft 426 kts 185°
2026-05-07 16:57 52.06058 -2.80530 27401 ft 427 kts 185°
2026-05-07 16:57 52.03087 -2.80783 27652 ft 429 kts 185°
2026-05-07 16:58 52.00096 -2.81036 27902 ft 431 kts 185°
2026-05-07 16:58 51.97100 -2.81290 28163 ft 432 kts 185°
2026-05-07 16:58 51.94095 -2.81545 28438 ft 434 kts 185°
2026-05-07 16:58 51.91072 -2.81800 28702 ft 435 kts 185°
2026-05-07 16:59 51.88041 -2.82056 28963 ft 437 kts 185°
2026-05-07 16:59 51.85004 -2.82362 29200 ft 438 kts 188°
2026-05-07 16:59 51.81977 -2.83006 29423 ft 439 kts 190°
2026-05-07 16:59 51.78949 -2.83689 29698 ft 441 kts 190°
2026-05-07 17:00 51.75908 -2.84351 29951 ft 442 kts 189°
2026-05-07 17:00 51.72855 -2.84987 30224 ft 443 kts 189°
2026-05-07 17:00 51.69785 -2.85633 30454 ft 445 kts 189°
2026-05-07 17:00 51.66716 -2.86296 30696 ft 446 kts 189°
2026-05-07 17:01 51.63631 -2.86961 30952 ft 448 kts 189°
2026-05-07 17:01 51.60540 -2.87616 31165 ft 449 kts 189°
2026-05-07 17:01 51.57433 -2.88272 31410 ft 451 kts 189°
2026-05-07 17:01 51.54322 -2.88933 31653 ft 452 kts 189°
2026-05-07 17:02 51.51199 -2.89598 31926 ft 453 kts 189°
2026-05-07 17:02 51.48072 -2.90260 32184 ft 454 kts 189°
2026-05-07 17:02 51.44934 -2.90921 32421 ft 455 kts 189°
2026-05-07 17:02 51.41785 -2.91586 32671 ft 457 kts 189°
2026-05-07 17:03 51.38629 -2.92253 32911 ft 459 kts 189°
2026-05-07 17:03 51.35458 -2.92921 33179 ft 460 kts 189°
2026-05-07 17:03 51.32278 -2.93589 33424 ft 462 kts 189°
2026-05-07 17:03 51.29090 -2.94258 33668 ft 463 kts 189°
2026-05-07 17:04 51.25886 -2.94930 33927 ft 465 kts 189°
2026-05-07 17:04 51.22675 -2.95602 34158 ft 466 kts 189°
2026-05-07 17:04 51.19458 -2.96270 34413 ft 467 kts 189°
2026-05-07 17:04 51.16231 -2.96942 34669 ft 467 kts 189°
2026-05-07 17:05 51.13008 -2.97616 34927 ft 468 kts 189°
2026-05-07 17:05 51.09818 -2.98282 35179 ft 468 kts 189°
2026-05-07 17:05 51.06591 -2.98952 35434 ft 469 kts 189°
2026-05-07 17:05 51.03350 -2.99623 35693 ft 469 kts 189°
2026-05-07 17:06 51.00108 -3.00296 35947 ft 470 kts 189°
2026-05-07 17:06 50.96867 -3.00968 36204 ft 470 kts 189°
2026-05-07 17:06 50.93617 -3.01640 36460 ft 471 kts 189°
2026-05-07 17:06 50.90369 -3.02310 36713 ft 471 kts 189°
2026-05-07 17:07 50.87114 -3.02981 36976 ft 472 kts 189°
2026-05-07 17:07 50.83855 -3.03652 37243 ft 472 kts 189°
2026-05-07 17:07 50.80593 -3.04322 37506 ft 473 kts 189°
2026-05-07 17:07 50.77328 -3.04992 37757 ft 473 kts 189°
2026-05-07 17:08 50.74064 -3.05661 38012 ft 474 kts 189°
2026-05-07 17:08 50.70797 -3.06330 38274 ft 474 kts 189°
2026-05-07 17:08 50.67521 -3.07000 38519 ft 474 kts 189°
2026-05-07 17:08 50.64250 -3.07668 38758 ft 474 kts 189°
2026-05-07 17:09 50.60974 -3.08335 38925 ft 475 kts 189°
2026-05-07 17:09 50.57685 -3.09005 38992 ft 478 kts 189°
2026-05-07 17:09 50.51073 -3.10347 39001 ft 477 kts 189°
2026-05-07 17:10 50.44520 -3.11675 39005 ft 474 kts 189°
2026-05-07 17:10 50.37981 -3.12996 39005 ft 474 kts 189°
2026-05-07 17:11 50.31462 -3.14397 39001 ft 472 kts 190°
2026-05-07 17:11 50.24967 -3.15858 38997 ft 472 kts 189°
2026-05-07 17:12 50.18448 -3.17262 39001 ft 474 kts 189°
2026-05-07 17:12 50.11956 -3.18697 39008 ft 475 kts 189°
2026-05-07 17:13 50.05411 -3.20113 39006 ft 476 kts 189°
2026-05-07 17:13 49.98840 -3.21546 39015 ft 477 kts 189°
2026-05-07 17:14 49.92276 -3.22966 38990 ft 476 kts 189°
2026-05-07 17:14 49.85728 -3.24383 38995 ft 475 kts 189°
2026-05-07 17:15 49.79173 -3.25482 38984 ft 476 kts 180°
2026-05-07 17:15 49.72623 -3.23723 38999 ft 481 kts 168°
2026-05-07 17:16 49.66118 -3.21257 39002 ft 482 kts 168°
2026-05-07 17:16 49.59592 -3.18829 38999 ft 483 kts 168°
2026-05-07 17:17 49.53070 -3.16381 38998 ft 482 kts 168°
2026-05-07 17:17 49.46544 -3.13957 38992 ft 482 kts 168°
2026-05-07 17:18 49.41122 -3.11939 38988 ft 482 kts 168°
2026-05-07 17:18 49.34618 -3.09528 38980 ft 479 kts 169°
2026-05-07 17:19 49.28141 -3.07134 38977 ft 479 kts 169°
2026-05-07 17:19 49.21655 -3.04743 38977 ft 480 kts 169°
2026-05-07 17:20 49.15146 -3.02350 38982 ft 482 kts 169°
2026-05-07 17:20 49.08617 -2.99955 38988 ft 483 kts 169°
2026-05-07 17:21 49.02090 -2.97568 38973 ft 482 kts 169°
2026-05-07 17:21 48.95548 -2.95182 38975 ft 484 kts 169°
2026-05-07 17:22 48.88998 -2.92800 38974 ft 484 kts 169°
2026-05-07 17:22 48.82456 -2.90426 38973 ft 483 kts 169°
2026-05-07 17:23 48.75976 -2.88082 38980 ft 481 kts 169°
2026-05-07 17:23 48.69474 -2.85736 38982 ft 480 kts 169°
2026-05-07 17:24 48.62971 -2.83396 38988 ft 481 kts 169°
2026-05-07 17:24 48.56454 -2.81057 38969 ft 482 kts 169°
2026-05-07 17:25 48.49927 -2.78720 38972 ft 482 kts 169°
2026-05-07 17:25 48.43394 -2.76388 38969 ft 483 kts 169°
2026-05-07 17:26 48.36852 -2.74058 38965 ft 483 kts 169°
2026-05-07 17:26 48.30296 -2.71730 38970 ft 485 kts 169°
2026-05-07 17:27 48.23727 -2.69403 38969 ft 485 kts 169°
2026-05-07 17:27 48.17176 -2.67089 38972 ft 483 kts 169°
2026-05-07 17:28 48.10638 -2.64785 38958 ft 482 kts 169°
2026-05-07 17:28 48.04116 -2.62493 38961 ft 481 kts 169°
2026-05-07 17:29 47.97590 -2.60206 38956 ft 482 kts 169°
2026-05-07 17:29 47.91045 -2.57918 38963 ft 484 kts 169°
2026-05-07 17:30 47.84485 -2.55631 38965 ft 484 kts 169°
2026-05-07 17:30 47.77922 -2.53348 38972 ft 484 kts 169°
2026-05-07 17:31 47.71427 -2.50736 38949 ft 486 kts 159°
2026-05-07 17:31 47.65761 -2.45219 38953 ft 494 kts 138°
2026-05-07 17:32 47.61196 -2.37551 38979 ft 497 kts 133°
2026-05-07 17:32 47.56676 -2.29812 38967 ft 496 kts 134°
2026-05-07 17:33 47.52150 -2.22114 38971 ft 495 kts 133°
2026-05-07 17:33 47.47637 -2.14428 38971 ft 494 kts 133°
2026-05-07 17:34 47.43115 -2.06777 38961 ft 494 kts 134°
2026-05-07 17:34 47.38610 -1.99155 38960 ft 493 kts 134°
2026-05-07 17:35 47.34087 -1.91539 38961 ft 494 kts 134°
2026-05-07 17:35 47.29596 -1.83952 38963 ft 495 kts 134°
2026-05-07 17:36 47.25097 -1.76388 38967 ft 496 kts 134°
2026-05-07 17:36 47.20545 -1.68753 38972 ft 497 kts 134°
2026-05-07 17:37 47.15972 -1.61168 38953 ft 494 kts 137°
2026-05-07 17:37 47.10882 -1.54443 38962 ft 492 kts 141°
2026-05-07 17:38 47.05769 -1.47729 38964 ft 494 kts 140°
2026-05-07 17:38 47.00661 -1.41020 38967 ft 492 kts 141°
2026-05-07 17:39 46.95550 -1.34358 38961 ft 491 kts 141°
2026-05-07 17:39 46.90468 -1.27695 38958 ft 490 kts 141°
2026-05-07 17:40 46.85379 -1.21074 38956 ft 489 kts 141°
2026-05-07 17:40 46.80293 -1.14455 38962 ft 490 kts 141°
2026-05-07 17:41 46.75216 -1.07876 38967 ft 492 kts 141°
2026-05-07 17:41 46.70086 -1.01241 38972 ft 493 kts 141°
2026-05-07 17:42 46.64959 -0.94629 38964 ft 492 kts 141°
2026-05-07 17:42 46.59846 -0.88052 38965 ft 490 kts 141°
2026-05-07 17:43 46.54743 -0.81487 38944 ft 490 kts 141°
2026-05-07 17:43 46.49652 -0.74914 38949 ft 489 kts 141°
2026-05-07 17:44 46.44516 -0.68448 38934 ft 487 kts 147°
2026-05-07 17:44 46.41636 -0.65929 38942 ft 482 kts 158°
2026-05-07 17:44 46.38519 -0.64209 38953 ft 478 kts 166°
2026-05-07 17:45 46.32302 -0.61390 38961 ft 481 kts 165°
2026-05-07 17:45 46.25929 -0.58427 38960 ft 481 kts 165°
2026-05-07 17:46 46.19544 -0.55507 38960 ft 481 kts 165°
2026-05-07 17:46 46.13164 -0.52577 38947 ft 481 kts 165°
2026-05-07 17:47 46.10564 -0.51386 38947 ft 480 kts 166°
2026-05-07 17:47 46.05141 -0.48913 38941 ft 478 kts 166°
2026-05-07 17:48 45.98790 -0.46017 38932 ft 478 kts 166°
2026-05-07 17:48 45.92477 -0.43147 38937 ft 478 kts 166°
2026-05-07 17:49 45.86136 -0.40270 38932 ft 477 kts 166°
2026-05-07 17:49 45.79795 -0.37401 38930 ft 476 kts 166°